Wind_Speed
8 9 8 8 8 8 8 8 8 8 9 9 10 10 11 12 13 14 15 15 16 17 17 18 18 19 19 20 21 21 22 22 23 23 25 25 26 27 27 28 28 28 29
9 9 9 9 9 9 8 8 9 9 10 10 10 11 12 13 14 15 15 16 17 17 18 18 19 19 20 20 21 21 22 23 23 24 25 26 27 27 27 28 28 28 29
9 9 9 9 9 9 8 8 9 10 11 11 12 12 12 13 14 15 15 16 17 17 18 19 19 19 20 21 22 22 23 23 23 24 24 25 26 27 27 28 29 29 30
10 11 11 10 9 9 9 9 10 10 11 11 12 12 12 13 14 15 15 16 18 19 19 20 20 20 21 21 22 23 23 23 23 24 25 25 25 26 27 29 30 30 31
11 11 12 11 10 9 9 10 10 11 11 11 12 12 13 13 14 16 16 17 18 19 20 20 20 20 21 21 22 23 23 23 24 24 24 25 25 27 28 29 30 31 32
12 12 12 11 11 11 11 11 12 12 12 12 12 13 14 15 16 17 18 18 19 19 19 20 20 20 21 22 22 23 23 23 24 24 25 25 26 27 28 29 30 31 32
13 13 13 12 12 12 12 12 13 13 14 14 14 14 15 16 17 18 18 19 19 19 20 20 21 21 22 22 22 23 23 23 24 24 25 26 27 28 29 30 30 31 31
14 13 13 13 14 14 13 14 14 14 14 14 15 15 15 16 17 17 19 20 20 20 20 21 22 22 22 23 23 24 24 24 24 25 26 27 28 28 29 30 31 31 32
13 14 14 15 15 14 14 15 15 15 15 16 16 16 16 17 17 18 19 19 20 21 21 22 22 22 23 23 24 24 24 25 25 26 27 27 28 28 29 30 31 31 31
15 15 16 16 15 15 15 15 15 16 16 17 17 17 18 18 18 19 20 20 20 21 21 22 23 23 24 24 24 25 25 25 26 26 27 28 29 29 29 31 31 31 31
17 17 16 16 16 16 16 16 16 17 17 17 18 18 19 19 20 20 21 21 21 22 22 22 23 24 24 24 25 25 25 26 27 27 28 29 30 30 31 31 31 31 32
18 18 18 17 17 17 17 17 18 18 18 19 19 19 19 20 21 21 22 22 22 23 23 24 24 24 25 25 25 26 26 27 28 28 29 30 30 31 31 31 31 31 31
19 18 18 18 18 18 19 19 19 19 19 19 20 20 20 21 22 22 23 23 24 24 25 25 25 25 26 26 26 27 27 27 28 29 29 30 30 31 31 30 30 30 30
19 19 19 19 19 19 20 20 20 20 20 20 20 21 22 22 23 24 24 24 25 26 25 25 26 26 27 27 27 27 27 28 29 29 29 30 30 30 30 30 29 29 29
20 20 20 20 20 20 20 21 21 20 21 21 22 22 23 23 24 25 25 25 26 26 27 27 27 27 27 28 28 28 29 29 29 30 30 30 29 29 29 29 29 29 29
21 21 21 21 21 21 21 22 21 22 22 23 23 23 24 24 25 26 26 26 27 28 28 28 28 28 28 28 28 29 29 29 30 30 30 30 30 30 29 29 29 29 29
22 22 22 22 22 23 23 23 23 23 24 24 25 25 25 25 26 27 27 28 28 28 29 29 29 28 28 28 29 29 30 30 31 30 30 30 30 30 29 29 29 29 29
22 22 23 23 23 24 24 24 24 25 25 25 25 26 26 26 27 28 29 29 29 29 29 29 29 29 29 29 30 30 30 31 31 30 30 30 29 29 29 29 29 29 29
23 23 23 23 24 24 24 25 25 26 26 27 27 27 27 28 28 29 30 30 30 29 29 29 29 29 29 30 30 30 31 31 31 31 30 29 29 29 29 29 29 28 28
24 24 24 25 25 25 25 26 26 27 28 28 29 28 28 29 29 29 29 29 29 29 28 28 29 29 29 30 30 30 31 31 31 30 30 29 29 29 29 29 28 28 28
26 26 26 26 27 27 27 27 28 29 29 29 29 29 29 29 29 29 29 29 29 29 29 29 29 29 29 30 30 30 30 30 30 30 30 29 29 29 29 29 28 28 27
27 27 27 28 28 28 29 29 29 29 29 29 30 29 29 29 29 29 29 29 29 29 29 28 28 28 29 29 30 30 30 30 30 30 29 29 29 29 29 28 28 27 26
27 27 28 28 29 29 29 29 29 30 30 30 30 29 30 30 30 29 29 29 28 28 28 28 28 28 29 30 30 30 30 30 30 30 29 29 29 28 28 27 27 26 25
27 28 28 28 28 28 29 29 29 29 30 29 29 29 29 29 29 29 28 28 28 28 28 28 28 29 29 30 30 30 30 30 29 29 28 28 28 28 28 27 26 26 25
28 29 29 28 28 28 28 29 29 29 29 29 28 28 28 28 28 27 27 27 27 27 28 28 29 29 30 30 30 30 30 29 29 28 28 28 28 28 27 27 26 26 26
29 29 29 29 29 28 28 28 28 28 28 28 28 28 27 27 27 27 27 27 28 28 28 28 29 30 30 30 30 30 30 29 29 28 28 28 28 28 27 27 27 27 27
Wind_Direction
337 332 326 321 322 320 313 311 309 305 305 302 295 291 291 292 294 295 295 295 295 298 299 298 298 297 296 297 297 295 293 291 288 286 285 285 285 284 285 283 281 281 283
331 332 334 330 325 321 314 310 312 306 302 300 296 293 293 291 292 293 295 296 297 298 299 300 300 299 298 299 299 297 295 292 290 288 287 288 286 287 288 288 287 285 284
333 330 329 327 322 319 316 314 312 308 303 301 300 297 295 294 295 296 297 299 301 302 301 299 300 301 300 299 299 299 298 296 295 293 291 291 288 286 287 288 288 288 285
332 331 328 324 319 318 318 315 312 311 309 304 304 303 301 300 300 303 304 303 303 302 302 301 301 301 301 300 299 299 299 298 297 297 296 294 292 290 290 289 289 289 288
325 327 326 326 323 320 317 317 316 313 312 312 309 307 308 307 306 304 305 305 304 303 303 303 302 302 302 301 300 300 300 300 299 298 296 295 293 292 292 291 291 290 289
318 320 323 322 319 317 319 321 320 318 315 313 310 309 308 308 307 306 306 306 307 305 305 305 305 303 303 304 304 303 302 302 301 300 299 297 296 296 295 295 294 293 291
314 313 315 316 317 317 317 315 316 316 314 314 311 310 308 308 309 309 311 311 308 307 307 306 306 305 305 305 305 305 305 305 304 303 302 301 300 299 298 298 298 297 295
309 308 309 311 313 313 313 313 313 314 313 312 312 311 310 310 311 313 314 313 310 308 308 308 308 306 307 306 305 305 305 306 305 305 306 305 303 303 302 301 300 299 298
305 308 310 309 310 311 310 311 311 312 312 309 308 307 308 309 311 312 313 313 310 308 308 308 308 308 307 307 306 305 305 306 306 307 307 307 306 306 306 306 304 302 300
305 307 308 310 307 306 308 308 309 309 308 307 307 306 307 308 309 309 310 311 311 310 310 310 310 309 309 307 306 305 306 307 307 308 308 307 306 307 307 307 307 306 304
303 305 306 308 306 304 306 307 307 307 306 306 306 306 308 307 308 309 309 309 310 311 312 312 312 311 309 307 306 307 307 307 308 308 308 308 308 308 308 308 307 307 307
300 301 300 302 303 302 304 305 305 304 303 304 305 306 307 308 308 308 309 309 309 309 310 311 312 312 311 309 309 309 308 308 308 308 308 308 308 309 309 308 307 307 308
294 296 297 299 300 301 303 303 303 303 303 303 305 307 307 308 309 309 309 308 309 309 309 310 311 312 312 312 311 311 310 310 310 310 311 311 311 311 311 310 310 310 310
292 294 296 297 297 298 300 302 302 302 303 304 305 306 307 308 308 308 308 308 308 309 310 310 311 312 312 311 311 312 312 312 312 313 313 313 313 313 314 313 311 310 310
289 291 293 294 295 295 297 298 298 300 302 302 303 304 305 306 307 307 307 308 309 309 309 309 310 310 310 311 311 312 313 313 314 314 314 314 314 314 314 314 313 311 311
287 289 291 292 293 295 296 296 295 297 298 300 302 303 303 304 304 306 306 307 308 309 309 309 309 309 310 310 311 313 314 314 314 315 315 315 314 314 314 314 313 312 312
286 287 289 290 292 293 294 294 295 296 297 298 300 301 301 302 303 304 306 306 307 308 309 309 309 309 310 311 312 313 314 315 316 316 315 315 314 315 315 314 314 313 313
286 286 287 288 290 291 292 293 295 296 297 298 299 300 301 302 303 303 304 306 306 307 308 308 308 309 310 311 312 313 314 315 316 315 315 314 315 315 315 315 314 313 313
285 285 285 286 288 290 291 294 295 296 296 298 299 300 301 302 303 303 304 304 306 307 307 308 309 309 310 311 312 313 314 315 314 314 314 313 313 314 314 315 314 314 314
284 285 285 287 288 289 290 291 292 294 296 297 298 299 300 302 302 302 303 304 306 307 307 307 308 309 309 310 312 313 313 313 314 313 313 312 312 313 314 314 314 313 313
283 284 285 286 287 288 289 290 291 293 294 296 298 299 300 301 302 302 303 304 305 305 305 306 308 309 310 311 312 313 313 313 313 313 312 312 313 313 314 314 314 313 313
283 284 285 285 286 287 288 290 291 291 292 295 298 298 299 300 301 301 301 303 304 305 306 307 308 310 311 312 313 313 313 313 314 314 313 312 312 312 313 313 313 313 314
282 283 284 285 286 287 287 288 289 290 292 294 295 295 296 298 299 300 301 303 304 305 307 308 309 310 311 312 312 312 313 313 313 312 312 312 312 312 312 312 313 313 315
281 283 284 285 285 286 287 287 288 290 292 293 294 295 296 297 298 300 302 303 304 305 307 309 309 311 311 312 313 313 313 313 312 312 312 312 312 312 312 312 312 312 313
280 282 283 283 285 287 288 288 289 290 291 293 295 295 295 297 299 300 301 302 303 305 306 308 309 310 310 311 312 313 313 312 312 312 312 312 312 311 311 311 311 311 311
280 282 283 284 285 286 288 288 289 290 291 292 294 295 295 297 299 300 301 302 303 305 306 308 309 310 310 311 311 311 311 312 312 313 313 313 312 311 311 310 310 310 310
Height
5893 5892 5890 5889 5888 5887 5886 5885 5884 5883 5882 5881 5880 5879 5879 5878 5877 5876 5875 5873 5872 5870 5869 5868 5866 5864 5863 5861 5859 5857 5856 5854 5853 5852 5850 5848 5846 5845 5843 5842 5840 5839 5838
5892 5891 5889 5888 5887 5885 5884 5883 5882 5881 5880 5879 5878 5877 5876 5875 5874 5873 5871 5870 5868 5867 5865 5863 5862 5860 5858 5856 5854 5852 5850 5849 5847 5845 5843 5841 5840 5838 5836 5835 5833 5832 5830
5892 5890 5888 5887 5885 5884 5883 5882 5880 5879 5878 5877 5875 5874 5873 5872 5871 5869 5868 5866 5864 5863 5861 5859 5857 5855 5853 5851 5849 5847 5845 5843 5841 5839 5837 5835 5833 5831 5830 5828 5826 5824 5822
5891 5889 5887 5885 5883 5882 5881 5880 5878 5877 5876 5874 5873 5872 5870 5869 5868 5866 5864 5863 5861 5858 5856 5854 5853 5851 5849 5847 5845 5842 5840 5838 5836 5833 5831 5829 5827 5825 5823 5821 5819 5817 5815
5890 5887 5885 5884 5882 5880 5879 5878 5876 5875 5873 5872 5870 5869 5868 5866 5864 5863 5861 5858 5856 5854 5852 5850 5848 5846 5844 5842 5839 5837 5835 5832 5830 5828 5826 5823 5821 5819 5816 5814 5812 5809 5807
5888 5886 5884 5882 5880 5878 5877 5876 5874 5873 5871 5869 5868 5866 5865 5863 5861 5859 5857 5855 5852 5850 5848 5845 5843 5841 5839 5837 5834 5832 5830 5827 5825 5822 5820 5817 5815 5812 5809 5806 5804 5801 5798
5885 5883 5882 5880 5879 5877 5875 5874 5872 5870 5868 5867 5865 5863 5862 5860 5858 5856 5853 5851 5848 5846 5843 5841 5839 5836 5834 5831 5829 5827 5824 5821 5819 5816 5813 5810 5808 5805 5802 5799 5796 5792 5789
5882 5881 5879 5878 5876 5874 5873 5871 5869 5867 5866 5864 5862 5860 5859 5857 5855 5852 5850 5847 5844 5841 5839 5837 5834 5831 5829 5826 5824 5821 5818 5815 5813 5810 5807 5804 5801 5798 5794 5791 5788 5784 5780
5880 5878 5876 5875 5873 5872 5870 5868 5866 5864 5863 5861 5859 5857 5855 5853 5851 5849 5846 5843 5840 5837 5835 5832 5829 5826 5824 5821 5818 5816 5813 5810 5807 5804 5801 5797 5794 5791 5787 5784 5780 5777 5773
5876 5875 5873 5871 5870 5868 5866 5865 5863 5861 5859 5858 5856 5854 5852 5850 5847 5845 5842 5839 5836 5833 5830 5828 5825 5822 5819 5816 5813 5810 5807 5804 5801 5798 5794 5791 5788 5784 5780 5777 5773 5769 5765
5872 5871 5869 5868 5866 5864 5863 5861 5859 5858 5856 5854 5852 5850 5848 5845 5843 5840 5838 5835 5832 5829 5826 5823 5820 5817 5814 5811 5808 5804 5801 5798 5795 5792 5788 5785 5781 5777 5773 5769 5765 5761 5757
5868 5867 5865 5863 5862 5860 5859 5857 5855 5853 5851 5850 5847 5845 5843 5841 5838 5836 5833 5830 5827 5824 5821 5818 5815 5812 5808 5805 5802 5799 5796 5792 5789 5785 5782 5778 5774 5770 5766 5761 5757 5754 5750
5864 5862 5860 5859 5857 5856 5854 5852 5851 5849 5847 5845 5843 5841 5839 5836 5834 5831 5828 5825 5822 5819 5816 5813 5809 5806 5803 5799 5796 5793 5789 5786 5782 5779 5775 5771 5767 5762 5758 5754 5750 5746 5742
5858 5857 5855 5854 5852 5851 5849 5847 5846 5844 5842 5840 5838 5836 5834 5831 5829 5826 5823 5820 5817 5814 5810 5807 5804 5800 5797 5794 5790 5787 5783 5779 5775 5772 5768 5764 5760 5755 5751 5747 5743 5739 5736
5852 5851 5850 5848 5847 5846 5844 5842 5841 5839 5837 5835 5833 5830 5828 5825 5823 5820 5817 5814 5811 5808 5805 5801 5798 5795 5791 5787 5784 5780 5777 5773 5769 5765 5761 5757 5753 5748 5744 5740 5736 5732 5729
5846 5845 5844 5843 5841 5840 5838 5837 5835 5833 5831 5829 5827 5824 5822 5819 5816 5814 5811 5808 5805 5802 5798 5795 5791 5788 5785 5781 5778 5774 5770 5766 5762 5758 5754 5749 5746 5742 5737 5733 5729 5726 5722
5839 5839 5837 5836 5835 5834 5832 5830 5829 5827 5825 5823 5820 5818 5815 5813 5810 5807 5804 5801 5798 5795 5792 5788 5785 5781 5778 5775 5771 5767 5763 5759 5755 5751 5747 5743 5739 5735 5731 5727 5723 5719 5715
5833 5832 5831 5830 5828 5827 5825 5824 5822 5820 5819 5816 5814 5811 5809 5806 5803 5800 5797 5794 5791 5788 5785 5781 5778 5774 5771 5768 5764 5760 5756 5752 5748 5744 5740 5736 5732 5728 5724 5720 5716 5712 5708
5826 5825 5824 5823 5821 5820 5819 5817 5815 5813 5812 5809 5807 5804 5802 5799 5796 5793 5790 5787 5784 5781 5777 5774 5771 5767 5764 5760 5757 5753 5749 5745 5741 5737 5732 5729 5725 5721 5717 5713 5709 5705 5701
5819 5818 5817 5815 5814 5813 5811 5810 5808 5806 5804 5802 5799 5797 5794 5792 5789 5786 5783 5780 5777 5773 5770 5767 5764 5760 5757 5753 5749 5745 5742 5738 5733 5729 5725 5721 5718 5714 5710 5706 5702 5698 5694
5811 5810 5809 5808 5807 5805 5804 5802 5801 5799 5796 5794 5792 5789 5787 5784 5781 5778 5775 5772 5769 5766 5763 5760 5756 5753 5749 5746 5742 5738 5734 5730 5726 5722 5718 5715 5711 5707 5703 5699 5696 5692 5688
5803 5802 5801 5800 5798 5797 5795 5794 5792 5790 5788 5786 5784 5781 5779 5776 5773 5770 5768 5765 5762 5759 5756 5752 5749 5745 5742 5738 5735 5731 5727 5723 5719 5715 5711 5708 5704 5700 5697 5693 5689 5685 5681
5795 5794 5793 5791 5790 5788 5787 5785 5784 5782 5780 5778 5775 5773 5770 5768 5765 5763 5760 5757 5754 5751 5748 5745 5741 5738 5735 5731 5727 5723 5719 5716 5712 5708 5704 5700 5697 5693 5690 5686 5682 5679 5675
5787 5786 5784 5783 5781 5780 5778 5777 5775 5773 5771 5769 5767 5765 5762 5760 5757 5755 5752 5749 5746 5743 5740 5737 5734 5731 5727 5723 5720 5716 5712 5708 5704 5700 5697 5693 5690 5686 5683 5679 5676 5672 5669
5778 5777 5776 5775 5773 5772 5770 5768 5767 5765 5763 5761 5759 5757 5754 5752 5750 5747 5744 5742 5739 5736 5733 5730 5726 5723 5720 5716 5712 5708 5704 5701 5697 5693 5690 5686 5683 5679 5676 5672 5669 5666 5663
5770 5769 5768 5766 5765 5763 5762 5760 5759 5757 5755 5753 5751 5749 5746 5744 5742 5739 5737 5734 5731 5728 5725 5722 5719 5715 5712 5708 5704 5701 5697 5693 5690 5686 5683 5679 5676 5672 5669 5666 5662 5659 5656